Tracking 18840 objects as of 20-November-2017
HD Live streaming from Space Station
objects crossing your sky now

FREGAT R/B

Track FREGAT R/B now!
10-day predictions


NORAD ID: 40083
Int'l Code: 2014-038E
Perigee: 7,665.5 km
Apogee: 7,698.7 km
Inclination: 0.1 °
Period: 276.3 minutes
Semi major axis: 14053 km
RCS: Unknown
Launch date: July 10, 2014
Source: Commonwealth of Independent States (former USSR) (CIS)
Launch site: FRENCH GUIANA (FRGUI)

Note: This is a ROCKET BODY
aabbcc
Your satellite tracking list
Your tracking list is empty




NASA's NSSDC Master Catalog

Two Line Element Set (TLE):
1 40083U 14038E   17322.56859029 -.00000023 +00000-0 +00000-0 0  9996
2 40083 000.1168 079.0915 0011809 116.6524 164.2243 05.21127030063932
Source of the keplerian elements: AFSPC